| DS18B20 | SHTC3 | ||||||
|---|---|---|---|---|---|---|---|
| ID | Date d/m/Y & Time | data1 สูง | data2 ต่ำ | data3 นอก | temp pcb | hum pcb | Time |
| 7834 | 01/04/2026 14:40:54 | 32.4  | 31.3  | 32.4  | 31.8  | 68.2  | 14:40 |
| 7833 | 01/04/2026 14:36:12 | 32.5  | 31.3  | 32.4  | 31.9  | 68.2  | 14:36 |
| 7832 | 01/04/2026 14:31:30 | 32.5  | 31.3  | 32.5  | 31.6  | 68.3  | 14:31 |
| 7831 | 01/04/2026 14:26:48 | 32.4  | 31.2  | 32.3  | 31.7  | 68.3  | 14:26 |
| 7830 | 01/04/2026 14:22:06 | 32.5  | 31.2  | 32.8  | 31.8  | 68.2  | 14:22 |
| 7829 | 01/04/2026 14:17:24 | 32.5  | 31.2  | 32.7  | 31.9  | 68.2  | 14:17 |
| 7828 | 01/04/2026 14:12:42 | 32.4  | 31.2  | 32.7  | 31.8  | 68.1  | 14:12 |
| 7827 | 01/04/2026 14:08:01 | 32.4  | 31.2  | 33.2  | 31.7  | 68.1  | 14:08 |
| 7826 | 01/04/2026 14:03:18 | 32.4  | 31.1  | 32.9  | 31.7  | 68.0  | 14:03 |
| 7825 | 01/04/2026 13:58:36 | 32.4  | 31.1  | 33.0  | 31.6  | 68.0  | 13:58 |
| 7824 | 01/04/2026 13:53:54 | 32.4  | 31.1  | 32.6  | 31.8  | 68.3  | 13:53 |
| 7823 | 01/04/2026 13:49:12 | 32.4  | 31.1  | 32.9  | 31.6  | 68.1  | 13:49 |
| 7822 | 01/04/2026 13:44:30 | 32.3  | 31.0  | 33.0  | 31.6  | 68.1  | 13:44 |
| 7821 | 01/04/2026 13:39:47 | 32.3  | 31.0  | 32.5  | 31.7  | 68.2  | 13:39 |
| 7820 | 01/04/2026 13:35:05 | 32.3  | 30.9  | 32.9  | 31.7  | 68.1  | 13:35 |
| 7819 | 01/04/2026 13:30:23 | 32.2  | 30.9  | 32.6  | 31.6  | 68.2  | 13:30 |
| 7818 | 01/04/2026 13:25:41 | 32.2  | 30.9  | 32.4  | 31.6  | 68.1  | 13:25 |
| 7817 | 01/04/2026 13:20:58 | 32.2  | 30.9  | 32.6  | 31.5  | 68.1  | 13:20 |
| 7816 | 01/04/2026 13:16:16 | 32.2  | 30.8  | 32.9  | 31.5  | 68.2  | 13:16 |
| 7815 | 01/04/2026 13:11:34 | 32.1  | 30.8  | 32.7  | 31.5  | 68.2  | 13:11 |
| 7814 | 01/04/2026 13:06:52 | 32.1  | 30.8  | 32.5  | 31.4  | 68.1  | 13:06 |
| 7813 | 01/04/2026 13:02:11 | 32.1  | 30.7  | 32.4  | 31.2  | 68.2  | 13:02 |
| 7812 | 01/04/2026 12:57:28 | 32.0  | 30.7  | 32.7  | 31.2  | 68.2  | 12:57 |
| 7811 | 01/04/2026 12:52:47 | 32.0  | 30.6  | 32.7  | 31.1  | 68.3  | 12:52 |